Tracking 20621 objects as of 30-Mar-2020
HD Live streaming from Space Station
objects crossing your sky now

COSMOS 402

Track COSMOS 402 now!
10-day predictions
COSMOS 402 is classified as:


NORAD ID: 5105
Int'l Code: 1971-025A
Perigee: 952.1 km
Apogee: 1,039.4 km
Inclination: 65.0 °
Period: 104.9 minutes
Semi major axis: 7366 km
RCS: 3.1116 m2 (large)
Launch date: April 1, 1971
Source: Commonwealth of Independent States (former USSR) (CIS)
Launch site: TYURATAM MISSILE AND SPACE COMPLEX (TTMTR)
aabbcc
Your satellite tracking list
Your tracking list is empty




NASA's NSSDC Master Catalog

Two Line Element Set (TLE):
1  5105U 71025A   20089.80133179 -.00000098  00000-0 -12901-4 0  9993
2  5105  64.9783 262.5641 0059297 279.4218 173.4451 13.73054972456305
Source of the keplerian elements: AFSPC